Flag for USA

Past Weather in Manitowoc, Wisconsin, USA — Yesterday and Last 2 Weeks

Now
55 °F

Overcast.


Feels Like: 54 °F
Forecast: 56 / 43 °F
Wind: 6 mph from North

Location: Manitowoc Municipal
Current Time: Sep 18, 2020 at 12:33:42 pm
Latest Report: Sep 18, 2020 at 11:56 am
Visibility: 10 mi
Pressure30.46 "Hg
Humidity: 45%
Dew Point: 34 °F
Location of ManitowocLocation

Past Weather in Manitowoc — Graph

°F

Manitowoc Temperature Yesterday

Maximum temperature yesterday: 59 °F (at 11:04 am)
Minimum temperature yesterday: 46 °F (at 8:56 pm)
Average temperature yesterday: 54 °F

High & Low Weather Summary for the Past Weeks

 TemperatureHumidityPressure
High77 °F (Sep 15, 3:56 pm)100% (Sep 10, 10:56 pm)30.46 "Hg (Sep 10, 10:56 pm)
Low42 °F (Sep 18, 6:56 am)29% (Sep 5, 2:56 pm)29.57 "Hg (Sep 3, 10:56 am)
Average61 °F78%30.09 "Hg
* Reported Sep 3 10:56 am — Sep 18 10:56 am, Manitowoc. Weather by CustomWeather, © 2020

Note: Actual official high and low records may vary slightly from our data, if they occured in-between our weather recording intervals... More about our weather records

Manitowoc Weather History for the Previous 24 Hours

Scroll right to see more
 ConditionsComfort  
Time TempWeatherWind HumidityBarometerVisibility
10:56 am
Fri, Sep 18
53 °FPassing clouds.9 mph51%30.46 "Hg10 mi
9:56 am53 °FSunny.9 mph55%30.45 "Hg10 mi
8:56 am50 °FSunny.9 mph59%30.43 "Hg10 mi
7:56 am46 °FSunny.8 mph61%30.42 "Hg10 mi
6:56 am42 °FSunny.6 mph71%30.40 "Hg10 mi
5:56 am43 °FClear.8 mph68%30.37 "Hg10 mi
4:56 am45 °FOvercast.8 mph68%30.36 "Hg10 mi
3:56 am47 °FMostly cloudy.8 mph74%30.35 "Hg10 mi
2:56 am46 °FOvercast.7 mph83%30.34 "Hg10 mi
1:56 am48 °FOvercast.7 mph80%30.33 "Hg10 mi
12:56 am48 °FMostly cloudy.8 mph86%30.32 "Hg10 mi
11:56 pm
Thu, Sep 17
46 °FPassing clouds.5 mph89%30.29 "Hg10 mi
10:56 pm47 °FPassing clouds.7 mph90%30.28 "Hg10 mi
9:56 pm46 °FPassing clouds.5 mph96%30.27 "Hg10 mi
8:56 pm46 °FClear.No wind96%30.26 "Hg10 mi
7:56 pm49 °FClear.No wind86%30.24 "Hg10 mi
6:56 pm52 °FClear.No wind75%30.23 "Hg10 mi
5:56 pm54 °FScattered clouds.3 mph69%30.22 "Hg10 mi
4:56 pm55 °FOvercast.6 mph69%30.22 "Hg10 mi
3:56 pm58 °FOvercast.8 mph65%30.22 "Hg10 mi
3:19 pm55 °FMostly cloudy.9 mph67%30.22 "Hg10 mi
2:56 pm58 °FMostly cloudy.7 mph67%30.22 "Hg10 mi
1:56 pm57 °FOvercast.12 mph72%30.22 "Hg10 mi
12:56 pm57 °FOvercast.8 mph72%30.23 "Hg10 mi
12:37 pm57 °FPartly sunny.9 mph72%30.23 "Hg10 mi
Weather by CustomWeather, © 2020

See weather overview